Location: ????????
(55.6189°N, 38.3031°E)
Time: 11:54:00
(UTC+00:00)

Cosmos 1892 - Pass Details

Date: 15 November 2019
Orbit: 504 x 525 km, 82.5° (Epoch: 10 December)

Event Time Altitude Azimuth Distance (km) Brightness Sun altitude
Rises 02:53:55 0° 189° (S) 2,613 6.3 -17.5°
Reaches altitude 10° 02:56:02 10° 189° (S) 1,729 5.3 -17.2°
Maximum altitude 02:59:50 86° 101° (E) 518 2.6 -16.7°
Drops below altitude 10° 03:03:38 10° 13° (NNE) 1,736 5.4 -16.2°
Sets 03:05:46 0° 13° (NNE) 2,624 6.3 -15.9°
